Location: Bratislava
(48.1500°N, 17.1170°E)
Time: 08:01:23
(UTC+02:00)

Altair - All Passes

Search period start: 08 June 2026 00:00
Search period end: 18 June 2026 00:00
Orbit: 1501 x 1682 km, 47.2° (Epoch: 6 June)

Date Brightness Start Highest point End Pass type
(mag) Time Alt. Az. Time Alt. Az. Time Alt. Az.
8 Jun - 01:00:16 10° WSW 01:09:44 78° SSE 01:19:36 10° E visible
8 Jun - 03:04:51 10° W 03:14:32 83° S 03:24:35 10° ESE visible
8 Jun - 05:09:32 10° WNW 05:18:55 53° SSW 05:28:33 10° SE daylight
8 Jun - 07:15:36 10° W 07:22:03 20° SW 07:28:37 10° S daylight
8 Jun - 20:36:20 10° SE 20:38:09 11° ESE 20:39:59 10° ESE daylight
8 Jun - 22:32:12 10° SSW 22:40:35 40° SE 22:49:16 10° ENE visible
9 Jun - 00:35:04 10° WSW 00:44:29 76° SSE 00:54:18 10° E visible
9 Jun - 02:39:37 10° W 02:49:15 84° S 02:59:17 10° ESE visible
9 Jun - 04:44:17 10° WNW 04:53:43 55° SSW 05:03:25 10° SE daylight
9 Jun - 06:50:05 10° W 06:56:57 22° SW 07:03:57 10° S daylight
9 Jun - 22:07:14 10° SSW 22:15:28 37° SE 22:23:56 10° ENE visible
10 Jun - 00:09:54 10° WSW 00:19:15 74° SSE 00:29:01 10° E visible
10 Jun - 02:14:23 10° W 02:23:59 85° S 02:33:59 10° E visible
10 Jun - 04:19:02 10° WNW 04:28:30 58° SSW 04:38:15 10° SE daylight
10 Jun - 06:24:37 10° W 06:31:50 24° SW 06:39:13 10° S daylight
10 Jun - 21:42:18 10° SSW 21:50:20 34° SE 21:58:36 10° ENE visible
10 Jun - 23:44:43 10° WSW 23:54:01 72° SSE 00:03:43 10° ENE visible
11 Jun - 01:49:09 10° W 01:58:43 86° S 02:08:42 10° E visible
11 Jun - 03:53:48 10° WNW 04:03:17 61° SSW 04:13:05 10° SE visible
11 Jun - 05:59:12 10° W 06:06:43 26° SW 06:14:25 10° S daylight
11 Jun - 21:17:25 10° SSW 21:25:14 32° SE 21:33:15 10° ENE visible
11 Jun - 23:19:34 10° WSW 23:28:48 69° SSE 23:38:27 10° ENE visible
12 Jun - 01:23:55 10° W 01:33:28 86° S 01:43:25 10° E visible
12 Jun - 03:28:35 10° WNW 03:38:04 63° SSW 03:47:54 10° SE visible
12 Jun - 05:33:48 10° W 05:41:36 28° SW 05:49:34 10° S daylight
12 Jun - 20:52:34 10° S 21:00:08 30° SE 21:07:52 10° E daylight
12 Jun - 22:54:25 10° SW 23:03:36 67° SSE 23:13:10 10° ENE visible
13 Jun - 00:58:42 10° W 01:08:12 86° S 01:18:07 10° E visible
13 Jun - 03:03:21 10° WNW 03:12:51 66° SSW 03:22:41 10° SE visible
13 Jun - 05:08:27 10° W 05:16:28 30° SW 05:24:41 10° S daylight
13 Jun - 20:27:44 10° S 20:35:02 27° SE 20:42:29 10° E daylight
13 Jun - 22:29:17 10° SW 22:38:24 64° SSE 22:47:53 10° ENE visible
14 Jun - 00:33:29 10° W 00:42:56 86° S 00:52:49 10° E visible
14 Jun - 02:38:07 10° WNW 02:47:36 68° SSW 02:57:28 10° ESE visible
14 Jun - 04:43:07 10° WNW 04:51:20 32° SW 04:59:47 10° SSE daylight
14 Jun - 20:02:58 10° S 20:09:57 25° SE 20:17:04 10° E daylight
14 Jun - 22:04:10 10° SW 22:13:13 61° SSE 22:22:36 10° ENE visible
15 Jun - 00:08:15 10° W 00:17:41 86° S 00:27:31 10° E visible
15 Jun - 02:12:53 10° WNW 02:22:22 71° SSW 02:32:14 10° ESE visible
15 Jun - 04:17:48 10° WNW 04:26:11 34° SW 04:34:49 10° SSE daylight
15 Jun - 19:38:14 10° S 19:44:52 23° SE 19:51:37 10° E daylight
15 Jun - 21:39:03 10° SW 21:48:02 58° SSE 21:57:19 10° ENE visible
15 Jun - 23:43:02 10° W 23:52:26 85° S 00:02:13 10° E visible
16 Jun - 01:47:40 10° W 01:57:09 73° SSW 02:07:00 10° ESE visible
16 Jun - 03:52:30 10° WNW 04:01:02 37° SW 04:09:50 10° SSE visible
16 Jun - 19:13:34 10° S 19:19:48 21° SE 19:26:08 10° E daylight
16 Jun - 21:13:57 10° SW 21:22:51 55° SSE 21:32:02 10° ENE daylight
16 Jun - 23:17:49 10° W 23:27:11 84° S 23:36:55 10° E visible
17 Jun - 01:22:27 10° W 01:31:54 75° SSW 01:41:45 10° ESE visible
17 Jun - 03:27:13 10° WNW 03:35:53 39° SW 03:44:49 10° SSE visible
17 Jun - 05:36:12 10° WSW 05:38:31 11° WSW 05:40:51 10° SW daylight
17 Jun - 18:48:57 10° SSE 18:54:44 19° SE 19:00:36 10° E daylight
17 Jun - 20:48:53 10° SW 20:57:42 52° SSE 21:06:45 10° ENE daylight
17 Jun - 22:52:36 10° WSW 23:01:57 83° S 23:11:38 10° E visible
